Retour au catalogue

STARLINK-5570

ActifCommunicationsVLEO
NORAD 55433·PAYLOAD·🇺🇸 United States

Lancé Jan 31, 2023 depuis Vandenberg Space Force Base

Loading…

Prochains Passages (prochaines 24 heures)

TLE

FraisSource: CelesTrak SupGP

Époque: Sep 14, 2026, 21:18 UTC

1 55433C 23014AU  26257.88798611 -.00052119  00000+0 -43687-2 0  2576
2 55433  70.0020 347.3167 0003256 271.5285   6.2665 14.98347888    14

Suivez STARLINK-5570 en temps réel avec AllMySat

Download on the App Store